TimeGMT,TemperatureF,Dew PointF,Humidity,Sea Level PressureIn,VisibilityMPH,Wind Direction,Wind SpeedMPH,Gust SpeedMPH,PrecipitationIn,Events,Conditions,WindDirDegrees,DateUTC
2:50 AM,47,40,68,29.39,28,West,23.0,,,,Partly Cloudy,280,2012-11-03 02:50:00
5:50 AM,46,38,67,29.43,22,West,27.6,,,Rain,Light Rain,260,2012-11-03 05:50:00
7:50 AM,46.4,37.4,71,29.44,6.2,West,20.7,-,N/A,Rain,Rain Showers,280,2012-11-03 07:50:00
8:20 AM,48.2,39.2,71,29.44,6.2,West,20.7,-,N/A,,Scattered Clouds,270,2012-11-03 08:20:00
8:50 AM,48,39,61,29.46,31,West,16.1,,,,Scattered Clouds,270,2012-11-03 08:50:00
8:50 AM,48.2,39.2,71,29.44,6.2,West,19.6,-,N/A,,Scattered Clouds,270,2012-11-03 08:50:00
9:20 AM,48.2,39.2,71,29.44,6.2,WNW,16.1,-,N/A,,Scattered Clouds,290,2012-11-03 09:20:00
9:50 AM,48.2,39.2,71,29.44,6.2,West,15.0,-,N/A,,Scattered Clouds,270,2012-11-03 09:50:00
10:20 AM,48.2,39.2,71,29.44,6.2,West,17.3,-,N/A,,Partly Cloudy,260,2012-11-03 10:20:00
10:50 AM,48.2,39.2,71,29.47,6.2,West,18.4,-,N/A,,Scattered Clouds,280,2012-11-03 10:50:00
11:20 AM,46.4,37.4,71,29.47,6.2,West,23.0,-,N/A,,Mostly Cloudy,270,2012-11-03 11:20:00
11:50 AM,47,38,63,29.48,31,SW,23.0,,,Rain,Rain,230,2012-11-03 11:50:00
12:20 PM,46.4,41.0,81,29.47,5.0,SW,21.9,34.5,N/A,,Small Hail,230,2012-11-03 12:20:00
12:50 PM,50.0,41.0,71,29.44,6.2,WSW,25.3,-,N/A,,Scattered Clouds,240,2012-11-03 12:50:00
1:20 PM,50.0,41.0,71,29.44,6.2,WSW,19.6,-,N/A,,Scattered Clouds,250,2012-11-03 13:20:00
1:50 PM,48.2,39.2,71,29.47,6.2,WSW,20.7,32.2,N/A,,Partly Cloudy,240,2012-11-03 13:50:00
2:20 PM,50.0,39.2,66,29.47,6.2,SW,23.0,-,N/A,,Partly Cloudy,230,2012-11-03 14:20:00
2:50 PM,49,39,59,29.49,31,West,19.6,,,,Scattered Clouds,260,2012-11-03 14:50:00
2:50 PM,48.2,39.2,71,29.47,6.2,West,19.6,-,N/A,,Scattered Clouds,260,2012-11-03 14:50:00
3:20 PM,50.0,39.2,66,29.47,6.2,West,18.4,-,N/A,,Scattered Clouds,260,2012-11-03 15:20:00
3:50 PM,46.4,39.2,76,29.47,6.2,West,18.4,-,N/A,,Partly Cloudy,260,2012-11-03 15:50:00
4:20 PM,46.4,39.2,76,29.47,6.2,West,12.7,-,N/A,,Partly Cloudy,260,2012-11-03 16:20:00
5:50 PM,47,40,68,29.49,28,WSW,16.1,,,Rain,Rain,240,2012-11-03 17:50:00
8:50 PM,49,41,66,29.46,31,SSW,13.8,,,,Scattered Clouds,210,2012-11-03 20:50:00
11:50 PM,47,41,74,29.39,28,WSW,4.6,,,Rain,Rain,250,2012-11-03 23:50:00